Regional Weather Roundup
Issued by NWS

Home | Current Version | Previous Version | Graphics & Text | Print | Product List | Glossary On
Versions: 1 2 3 4 5 6 7 8 9 10 11 12 13 14 15 16 17 18 19 20 21 22 23 24 25 26 27 28 29 30 31 32 33 34 35 36 37 38 39 40 41 42 43 44 45 46 47 48 49 50
000
ASUS43 KIND 200709
RWRIN

WEATHER ROUNDUP FOR INDIANA
NATIONAL WEATHER SERVICE INDIANAPOLIS IN
300 AM EDT SUN APR 20 2014

NOTE: "FAIR" INDICATES FEW OR NO CLOUDS BELOW 12,000 FEET WITH NO
SIGNIFICANT WEATHER AND/OR OBSTRUCTIONS TO VISIBILITY.

* - STATION DOES NOT REPORT WEATHER SUCH AS PRECIPITATION OR FOG.

+ - STATION NOT QUALITY CONTROLLED BY THE NATIONAL WEATHER SERVICE.
    USE DATA WITH CAUTION...ESPECIALLY DEWPOINT AND RELATIVE
    HUMIDITY OBSERVATIONS.

INZ001>003-010>013-019-020-200800-
NORTHWEST INDIANA

CITY           SKY/WX    TMP DP  RH WIND       PRES   REMARKS
GARY /AIRPORT/ CLEAR     51  29  41 SE9       30.25S
LA PORTE +     PTCLDY    40  27  57 SE3       30.28S
MICHIGAN CITY+ PTCLDY    45  23  42 SE7       30.27S
MONTICELLO +   MOCLDY    46  28  48 E8        30.26F
RENSSELAER +   PTCLDY    43  32  65 E7        30.27S
VALPARAISO     PTCLDY    41  27  57 E7        30.27F

$$

LMZ046-743>745-200800-
SOUTHERN LAKE MICHIGAN

STATION/POSITION TIME  TEMP WIND        PRES
                       AIR  DIR/SP/G
                 (UTC) (F)  (DEG/KT/KT) (MB)
MICHIGAN CITY    0700   49  110/ 13/ 19   N/A

$$

INZ004-005-014>016-021>024-200800-
NORTH CENTRAL INDIANA

CITY           SKY/WX    TMP DP  RH WIND       PRES   REMARKS
GOSHEN         MOCLDY    41  30  65 E3        30.28F
LOGANSPORT +   MOCLDY    39  28  65 E8        30.28F
PERU/GRISSOM   PTCLDY    44  27  51 E6        30.27F
ROCHESTER +    MOCLDY    43  30  61 SE5       30.28F
SOUTH BEND     NOT AVBL
WARSAW +       MOCLDY    41  28  60 E6        30.28F

$$

INZ006>009-017-018-025>027-200800-
NORTHEAST INDIANA

CITY           SKY/WX    TMP DP  RH WIND       PRES   REMARKS
ANGOLA *+      CLEAR     39  30  70 E5        30.30F
AUBURN +       MOCLDY    36  30  80 NE5       30.30F
FORT WAYNE     PTCLDY    38  29  70 E7        30.31S

$$

INZ028-029-035-036-043>045-051>053-200800-
WEST CENTRAL INDIANA

CITY           SKY/WX    TMP DP  RH WIND       PRES   REMARKS
GREENCASTLE +  PTCLDY    46  36  66 E3        30.25S
LAFAYETTE      MOCLDY    45  34  65 E7        30.26S
TERRE HAUTE    PTCLDY    47  39  74 NE6       30.24S

$$

INZ030>032-037>040-046>048-054>057-064-065-200800-
CENTRAL INDIANA

CITY           SKY/WX    TMP DP  RH WIND       PRES   REMARKS
CP ATTERBURY + CLEAR     41  36  81 CALM      30.25S
INDIANAPOLIS   PTCLDY    48  33  56 NE9       30.26R
-EAGLE CREEK   PTCLDY    49  33  54 NE3       30.26R
KOKOMO *+      PTCLDY    39  28  65 E7        30.28F
MARION +       PTCLDY    41  26  56 E7        30.29S
MT COMFORT *+  CLEAR     43  34  70 N7        30.27R
SHELBYVILLE    CLEAR     48  35  60 NE6       30.25R
ZIONSVILLE +   PTCLDY    45  32  60 NE5       30.27S

$$

INZ033-034-041-042-049-050-058-059-200800-
EAST CENTRAL INDIANA

CITY           SKY/WX    TMP DP  RH WIND       PRES   REMARKS
MUNCIE         CLEAR     42  29  59 NE3       30.28S

$$

INZ060-061-067>069-081>083-085>088-200800-
SOUTHWEST INDIANA

CITY           SKY/WX    TMP DP  RH WIND       PRES   REMARKS
EVANSVILLE     PTCLDY    57  39  51 NE5       30.21S
HUNTINGBURG *+ CLEAR     52  36  54 E5        30.22R
WASHINGTON +   PTCLDY    51  39  65 CALM      30.21F

$$

INZ062-063-066-070>080-084-089>092-200800-
SOUTH CENTRAL AND SOUTHEAST INDIANA

CITY           SKY/WX    TMP DP  RH WIND       PRES   REMARKS
BLOOMINGTON    PTCLDY    45  36  70 CALM      30.23S
NORTH VERNON + CLEAR     50  36  57 NE6       30.23

$$




USA.gov is the U.S. government's official web portal to all federal, state and local government web resources and services.